Theta_e
331 331 333 334 335 338 340 340 341 341 340 336 342 343 341 344 344 341 339 342 339 349 347 347 348 349 349 349 349 346 347 343 350 353 353 351 350 351 351 352 350 350 347 339
327 331 332 335 336 339 339 339 340 340 341 337 336 340 342 345 346 342 340 338 341 341 344 351 352 352 352 352 352 351 349 348 348 351 352 351 352 350 351 350 350 345 343 340
326 329 333 334 335 337 339 339 340 340 339 339 339 336 342 340 348 345 341 340 344 343 348 348 353 353 354 356 355 354 352 344 349 348 355 354 354 351 349 348 347 348 347 346
325 329 331 333 334 335 342 340 341 339 339 339 337 336 343 340 341 345 343 342 341 339 347 350 351 354 356 357 357 357 355 358 357 356 357 356 350 349 349 348 349 352 348 344
325 328 329 330 334 337 338 339 338 339 336 334 334 333 344 340 342 338 340 348 345 343 345 350 350 353 355 356 357 357 358 360 359 355 356 353 351 351 353 352 348 349 349 350
326 329 328 329 332 336 339 338 337 337 334 334 336 338 345 340 341 342 339 343 347 346 347 351 351 352 354 356 356 355 354 358 358 356 350 353 354 352 354 352 350 348 346 346
325 328 328 331 329 330 334 335 340 342 335 340 334 338 338 341 339 339 338 341 347 348 348 350 352 354 355 356 356 356 351 351 353 352 353 352 352 349 350 352 350 343 344 343
325 328 328 330 328 331 334 332 333 340 344 339 336 339 335 337 338 339 341 345 346 347 351 352 353 354 356 357 357 355 350 350 356 355 354 354 352 353 351 352 344 344 341 338
325 329 329 329 329 331 331 334 334 336 338 336 337 338 336 337 337 337 343 345 344 344 345 351 354 355 355 356 355 357 352 351 352 356 355 353 352 353 352 333 334 333 330 334
324 325 328 328 329 332 331 335 334 334 339 341 337 339 339 339 338 337 343 344 346 344 344 346 350 352 355 356 356 357 357 352 355 355 352 349 343 337 327 333 335 337 339 338
323 323 326 330 330 331 331 335 336 334 334 338 339 343 340 340 338 341 342 345 345 344 346 349 352 353 355 357 358 359 358 357 358 356 346 340 346 337 338 338 341 342 343 344
324 323 324 327 330 332 331 331 334 334 335 334 338 340 340 340 340 342 342 344 346 344 346 350 353 354 356 358 358 358 356 356 356 354 348 346 345 341 341 341 343 343 344 345
324 322 322 324 327 332 331 331 329 331 332 334 342 343 338 336 337 336 336 339 347 348 348 349 352 355 356 357 357 356 360 359 356 347 345 342 340 343 345 344 345 345 345 340
326 322 322 324 337 337 337 336 334 328 330 339 343 341 338 336 338 339 340 344 345 339 343 352 352 354 355 355 357 359 357 353 352 350 338 341 344 345 344 345 344 342 341 340
322 322 324 333 334 335 335 335 336 335 335 336 340 343 341 340 339 337 338 339 342 341 344 355 355 356 356 357 358 357 352 351 351 342 344 344 343 342 342 343 340 342 340 340
322 322 326 330 334 335 336 334 334 334 337 338 339 338 337 337 337 335 338 339 351 357 357 357 357 356 357 357 357 355 352 352 350 346 344 344 345 342 345 343 342 340 339 340
331 323 324 324 330 334 334 334 334 335 334 338 337 336 338 339 339 340 340 341 357 356 357 357 357 356 356 357 356 356 354 352 349 347 347 347 344 343 345 343 341 340 340 340
337 327 326 332 338 338 334 333 334 334 335 333 337 337 339 335 333 335 340 341 356 355 358 357 356 356 356 358 355 353 353 352 348 344 344 346 345 343 340 342 338 339 335 330
335 326 328 336 340 339 337 337 336 334 335 337 339 340 337 335 335 337 341 342 347 357 357 356 357 357 356 353 349 349 350 347 343 345 347 340 340 332 329 337 334 332 320 316
334 330 327 331 339 341 337 338 336 336 337 339 339 339 336 339 339 336 358 361 359 358 356 356 355 353 354 353 351 348 347 345 338 335 339 337 331 330 335 329 327 317 319 325
337 334 328 330 334 341 341 339 338 341 349 345 340 341 339 345 336 333 355 358 358 355 354 352 352 351 352 350 348 346 342 339 337 334 333 334 336 329 318 316 320 325 325 324
338 340 336 330 332 351 338 342 346 340 340 353 358 358 359 358 353 355 353 351 350 351 352 352 353 351 349 348 345 342 342 338 337 335 338 329 318 314 315 321 324 323 322 316
343 339 342 344 343 338 336 338 338 336 334 337 356 357 356 356 355 354 352 351 350 351 351 351 349 347 346 343 343 342 339 337 331 326 318 315 316 316 323 323 321 319 312 309
338 336 342 340 339 340 334 335 337 339 335 333 349 354 353 352 351 349 349 348 348 348 348 347 345 343 339 337 336 335 331 325 320 318 314 314 320 317 319 318 316 314 313 312
337 336 340 340 336 339 337 337 339 340 337 337 350 352 352 351 349 348 348 347 346 345 344 340 336 335 334 335 332 326 321 319 316 315 317 321 320 318 318 316 316 315 315 314
334 336 340 343 336 337 336 339 336 336 344 349 348 348 348 348 347 348 348 346 345 344 343 341 339 336 335 331 327 320 316 316 318 319 320 318 318 317 315 316 316 316 316 315
Wind_Speed
20 4 7 13 14 6 3 0 7 11 10 1 11 10 10 23 34 25 26 19 24 20 15 32 31 30 27 22 17 9 22 20 18 15 15 9 9 12 14 13 16 8 14 17
7 11 12 17 16 3 6 14 18 7 8 4 5 4 10 17 29 39 35 31 10 15 23 28 36 33 27 15 10 10 12 23 20 16 12 9 7 12 12 12 8 9 14 16
10 10 17 18 17 13 10 14 6 7 3 5 2 6 8 4 28 20 17 16 16 16 32 27 36 34 26 19 12 6 10 20 17 16 9 9 10 5 3 8 6 12 14 12
9 19 17 16 12 12 3 12 18 6 4 4 4 6 4 2 4 21 31 30 14 10 26 29 31 31 27 20 13 9 9 11 11 14 11 8 7 9 4 2 7 11 13 13
14 14 13 15 15 5 6 15 8 6 6 3 6 4 6 6 4 5 9 30 29 18 33 31 33 31 24 20 16 11 12 14 13 13 12 6 3 6 7 4 3 8 12 9
12 25 12 14 13 9 16 6 6 9 4 5 10 1 4 4 8 6 16 17 46 54 42 40 34 34 28 23 19 16 16 18 15 12 14 6 3 6 3 3 1 7 11 8
13 15 14 12 8 11 5 6 2 5 3 3 7 7 6 15 11 10 16 22 30 40 36 38 34 35 27 22 18 13 14 14 13 9 7 7 3 5 4 2 2 5 6 11
7 8 8 9 11 7 8 7 5 7 3 3 9 4 6 7 15 25 25 15 37 39 43 36 35 31 26 23 17 13 15 16 13 11 8 7 6 5 1 1 2 1 6 12
7 10 10 14 13 7 10 3 5 6 2 4 4 12 8 6 4 12 13 27 32 37 35 35 33 27 25 21 16 13 14 16 13 13 11 9 8 6 1 2 2 4 8 11
13 7 10 13 15 8 8 4 4 3 5 3 4 4 4 8 20 4 11 23 32 33 27 27 25 23 20 17 17 15 10 14 14 12 10 9 10 5 9 7 8 9 14 15
12 6 20 6 8 9 5 3 3 3 7 4 1 4 6 2 3 12 4 30 33 30 30 28 24 24 21 21 18 16 10 16 15 10 12 9 9 8 9 5 6 9 13 11
11 4 5 11 8 15 10 12 12 5 8 6 6 5 5 9 3 18 24 17 35 33 32 30 28 24 25 23 21 17 15 18 15 9 11 10 10 8 6 2 2 5 8 11
6 4 5 11 10 7 12 8 10 8 7 6 5 4 7 10 15 28 29 20 30 28 25 30 29 27 23 20 18 14 20 19 14 11 10 13 11 8 3 6 4 7 12 15
5 2 5 6 6 3 6 7 15 6 4 3 2 5 5 2 2 17 12 28 41 33 33 32 31 27 23 19 18 18 22 16 12 11 12 10 10 7 6 6 9 12 14 13
6 3 6 1 6 4 9 21 19 21 6 6 9 7 6 6 6 3 6 13 25 34 35 38 37 30 27 27 24 17 15 17 12 14 11 12 8 6 5 6 12 15 15 13
6 6 5 4 8 10 14 16 20 26 8 9 11 2 2 6 8 5 5 6 18 34 33 35 30 30 29 27 23 18 20 18 16 16 13 7 5 5 9 10 14 14 13 14
6 4 3 7 10 9 9 7 16 2 12 15 8 7 5 4 3 8 9 5 33 36 35 32 31 30 27 21 18 19 17 19 17 17 11 6 3 8 10 13 12 13 14 16
14 7 5 3 5 1 8 14 8 14 8 13 15 19 19 19 27 19 8 5 17 29 30 28 28 26 22 21 24 19 23 18 13 13 14 11 2 6 13 17 16 15 16 16
10 4 3 5 3 6 7 8 7 7 4 11 20 17 27 18 3 14 16 20 23 30 28 24 22 20 21 25 23 29 22 22 14 14 11 6 3 10 8 18 16 16 16 12
17 10 7 2 7 6 7 5 22 6 4 9 34 24 24 20 10 5 4 20 27 26 25 23 19 16 17 20 28 15 15 18 4 7 7 8 6 5 13 13 15 12 9 10
10 9 10 8 6 4 1 14 20 5 2 8 34 31 25 11 25 35 17 21 21 21 22 26 23 21 18 16 14 12 14 13 12 8 6 2 3 8 11 9 3 6 5 4
3 6 4 5 7 2 7 6 7 8 15 3 30 35 32 38 34 30 27 28 26 25 26 26 24 15 12 15 10 14 15 11 7 6 2 5 6 3 1 7 5 4 7 8
3 4 6 4 3 2 6 23 20 21 22 22 18 32 37 33 31 27 25 26 24 23 23 20 20 19 19 17 13 15 10 10 8 5 2 3 7 8 7 8 2 7 10 12
4 8 4 6 11 8 3 13 10 5 5 26 4 23 23 26 29 29 29 28 24 18 17 15 14 18 16 11 11 13 16 10 6 2 4 3 6 7 5 6 7 9 11 10
3 7 7 2 11 17 10 11 23 21 21 29 19 23 25 24 21 26 26 22 19 16 14 13 17 15 13 15 18 15 11 7 5 5 7 5 5 5 3 4 4 5 9 9
5 4 4 3 7 6 14 16 14 23 31 32 29 25 22 20 22 26 26 20 22 20 16 13 12 12 17 19 16 12 10 8 7 6 7 10 6 3 1 1 2 2 7 9
Wind_Direction
232 210 227 252 253 240 269 182 279 274 294 66 176 197 216 139 132 161 159 181 170 219 168 186 184 190 196 207 217 192 195 197 206 207 202 210 217 225 230 257 254 255 285 304
252 223 235 249 256 213 5 281 271 254 284 166 276 215 192 140 156 164 172 175 191 167 219 184 184 196 198 190 184 186 201 208 205 206 221 222 214 259 223 255 269 297 312 344
219 235 225 245 260 246 186 245 278 191 244 256 332 310 139 130 167 171 169 171 183 167 195 197 185 196 197 191 186 182 183 190 208 215 202 218 228 252 265 282 309 313 344 358
243 239 245 234 244 259 206 288 298 230 159 244 196 241 127 112 116 179 192 204 186 156 219 201 178 180 182 178 171 192 196 189 203 195 206 222 221 219 228 285 307 330 344 341
248 242 242 251 241 139 218 243 282 323 282 273 323 94 296 329 260 252 208 178 182 79 254 207 181 175 175 172 174 186 201 198 209 199 205 220 213 193 190 237 312 336 346 338
228 246 242 243 256 196 161 235 314 334 288 52 328 360 266 206 217 242 258 186 177 167 205 187 172 171 171 173 179 181 191 200 214 204 211 222 202 184 204 230 230 17 20 41
266 245 255 241 265 282 223 142 62 295 12 209 333 358 212 225 215 214 229 240 155 167 170 154 160 163 167 174 177 173 176 181 194 190 182 206 163 89 109 76 10 340 356 341
236 277 246 253 209 227 242 202 162 216 123 255 3 300 264 263 246 217 236 188 132 130 141 149 157 158 163 170 179 179 170 157 158 165 158 163 137 137 85 12 360 331 332 323
228 239 235 229 252 192 267 262 219 105 187 77 215 246 321 341 279 196 154 141 133 133 134 138 145 150 159 167 182 180 170 162 158 157 174 174 172 171 223 50 51 20 19 32
260 295 260 212 224 219 193 186 5 21 165 177 278 214 210 148 265 204 137 128 128 137 136 143 147 154 157 165 179 186 186 172 160 167 173 175 176 169 134 89 48 26 21 20
233 213 277 294 198 190 246 160 187 240 147 162 223 299 18 244 13 36 244 138 135 138 147 152 152 159 163 167 176 181 173 157 175 172 164 140 119 109 98 55 19 360 355 347
223 208 265 252 240 193 199 197 203 149 267 226 116 234 220 281 216 71 29 150 151 148 145 146 150 155 163 166 176 184 165 164 178 171 156 145 146 125 82 38 360 345 318 321
223 249 264 305 321 223 200 233 210 192 205 273 130 204 197 262 90 100 121 255 86 78 134 149 150 157 165 172 176 170 164 174 179 172 164 156 144 124 152 162 198 285 307 319
100 288 184 218 233 63 305 308 320 248 258 124 143 173 254 273 254 139 91 154 153 161 207 164 159 167 173 173 174 170 163 180 170 176 160 146 141 182 223 260 296 315 322 322
121 239 277 28 133 174 185 264 286 294 168 130 183 194 219 243 330 25 38 101 185 170 197 163 158 165 171 169 171 170 160 168 169 154 173 176 190 215 254 302 319 322 325 333
160 232 260 216 231 207 217 257 274 281 106 100 105 42 63 245 200 206 281 342 150 151 160 168 158 169 174 177 181 176 171 177 176 165 166 185 231 269 291 322 325 320 328 327
321 180 197 262 249 204 244 230 255 339 119 143 140 201 180 259 197 214 193 53 150 162 166 171 177 179 184 183 173 160 172 176 179 179 174 198 247 299 320 323 313 315 319 319
275 231 160 184 33 257 256 251 285 289 163 182 135 162 167 173 161 215 208 199 178 170 168 176 180 187 193 189 167 162 175 178 164 161 181 182 208 358 351 317 307 308 318 322
268 195 210 128 180 291 323 281 256 192 288 89 136 146 175 168 136 357 284 246 236 178 173 165 168 189 195 177 168 201 188 151 160 187 179 196 232 345 326 282 304 318 330 356
319 269 180 176 145 202 254 294 345 347 39 127 151 168 160 126 89 289 291 151 153 155 144 162 175 169 170 170 160 175 172 174 257 134 197 260 283 291 270 297 315 328 24 39
334 277 195 215 213 132 181 295 315 84 14 337 155 170 165 163 160 165 149 140 134 137 145 149 156 153 142 146 139 148 159 147 138 161 171 203 252 278 295 317 48 56 52 40
268 290 272 214 202 238 8 20 95 259 349 351 111 122 117 126 139 147 139 129 130 139 148 156 153 167 162 143 140 145 149 150 155 155 180 274 295 311 121 94 89 48 2 351
239 52 307 301 142 47 45 128 124 60 51 316 92 116 124 130 135 143 141 143 146 145 145 150 156 145 140 144 149 151 172 155 151 180 238 344 35 75 95 105 19 8 13 24
269 347 269 2 15 3 161 135 133 198 11 291 224 121 123 132 144 144 145 153 157 160 162 165 157 148 145 157 162 154 152 158 158 137 63 66 54 67 78 20 9 21 20 40
256 328 337 302 349 11 77 318 133 136 171 195 160 139 144 153 146 142 152 154 150 155 157 171 163 157 156 154 150 149 147 144 121 99 111 128 86 93 95 30 3 15 15 27
218 209 328 248 206 122 290 337 257 250 199 167 152 149 158 159 153 159 162 157 158 165 173 179 179 171 159 157 151 148 151 152 131 131 135 157 163 194 137 168 62 31 5 351